Regional Weather Roundup
Issued by NWS Sioux Falls, SD

Home | Current Version | Previous Version | Graphics & Text | Print | Product List | Glossary Off
Versions: 1 2 3 4 5 6 7 8 9 10 11 12 13 14 15 16 17 18 19 20 21 22 23 24 25 26 27 28 29 30 31 32 33 34 35 36 37 38 39 40 41 42 43 44 45 46 47 48 49 50

000
ASUS43 KFSD 261202
RWRFSD

WEATHER ROUNDUP FOR SE SOUTH DAKOTA/SW MINNESOTA/NW IOWA
NATIONAL WEATHER SERVICE SIOUX FALLS SD
700 AM CDT THU MAY 26 2016

NOTE: "FAIR" INDICATES FEW OR NO CLOUDS BELOW 12,000 FEET WITH NO
SIGNIFICANT WEATHER AND OR OBSTRUCTIONS TO VISIBILITY.


SDZ038>040-050-052>070-261300-
SOUTHEAST SOUTH DAKOTA

CITY           SKY/WX    TMP DP  RH WIND       PRES   REMARKS
BROOKINGS      SUNNY     53  50  89 NW8       29.85S
CHAMBERLAIN    NOT AVBL
HURON          CLEAR     54  51  90 CALM      29.86R
6HR MIN TEMP:  48; 6HR MAX TEMP:  58;

MADISON        FAIR      55  55 100 NW8       29.88R
MITCHELL       CLEAR     56  52  86 W5        29.88R
6HR MIN TEMP:  55; 6HR MAX TEMP:  61;

SIOUX FALLS    MOSUNNY   56  51  84 N5        29.85R
6HR MIN TEMP:  51; 6HR MAX TEMP:  62;

WINNER         FAIR      53  49  86 CALM      29.87S
YANKTON        CLEAR     55  52  88 SW5       29.86R
$$

MNZ071-072-080-081-089-090-097-098-261300-
SOUTHWEST MINNESOTA

CITY           SKY/WX    TMP DP  RH WIND       PRES   REMARKS
FAIRMONT       CLOUDY    61  50  67 SW9       29.85S
JACKSON        PTSUNNY   59  54  82 SW12      29.86R
LUVERNE        SUNNY     55  52  88 CALM      29.86R
MARSHALL       SUNNY     58  53  84 W7        29.84R
6HR MIN TEMP:  57; 6HR MAX TEMP:  66;

MONTEVIDEO     MOSUNNY   59  52  77 CALM      29.83R
PIPESTONE      SUNNY     57  52  82 NW9       29.85R
REDWOOD FALLS  PTSUNNY   62  53  72 W10       29.81R
TRACY          SUNNY     60  54  82 W3        29.85R
WINDOM         CLOUDY    59  54  82 CALM      29.85R
WORTHINGTON    SUNNY     59  56  89 W7        29.85R
$$

IAZ001>003-012>014-020>022-031-032-NEZ013-014-SDZ071-261300-
NORTHWEST IOWA

CITY           SKY/WX    TMP DP  RH WIND       PRES   REMARKS
DENISON        SUNNY     55  55 100 CALM      29.86R
ESTHERVILLE    CLOUDY    57  56  96 S6        29.85R
SIOUX CITY     SUNNY     59  56  89 CALM      29.88R
6HR MIN TEMP:  53; 6HR MAX TEMP:  64; 6HR PCP:  0.13;

SPENCER        SUNNY     59  55  87 S6        29.85S
6HR MIN TEMP:  58; 6HR MAX TEMP:  67; 6HR PCP:  0.17;

STORM LAKE     SUNNY     57  55  94 S5        29.88R
$$

ABBREVIATIONS USED IN REMARKS
   TC - TEMPERATURE IN CELSIUS
  WCI - WIND CHILL INDEX
   HX - HEAT INDEX
  VSB - VISIBILITY





USA.gov is the U.S. government's official web portal to all federal, state and local government web resources and services.